{"data":{"norad_id":48057,"epoch":"2026-05-25T01:19:07.971168Z","epoch_age_seconds":77189,"freshness":"FRESH","line1":"1 48057U 21025R   26145.05495337 -.00000223  00000+0 -64519-3 0  9994","line2":"2 48057  87.8946 324.8275 0001617  93.1036 267.0278 13.13467975250641","mean_motion":13.13467975,"eccentricity":0.0001617,"inclination_deg":87.8946,"raan_deg":324.8275,"arg_perigee_deg":93.1036,"mean_anomaly_deg":267.0278,"bstar":-0.00064519,"rev_number":25064,"period_min":109.6334305372,"perigee_km":1208.546233767,"apogee_km":1211.0001639253,"semimajor_km":7587.9101988461,"source":"CELESTRAK","updated_at":"2026-05-25T13:38:22.390760Z"}}